Regional Weather Roundup
Issued by NWS

Home | Current Version | Previous Version | Text Only | Print | Product List | Glossary Off
Versions: 1 2 3 4 5 6 7 8 9 10 11 12 13 14 15 16 17 18 19 20 21 22 23 24 25 26 27 28 29 30 31 32 33 34 35 36 37 38 39 40 41 42 43 44 45 46 47 48 49

000
ASUS45 KSLC 230010
RWRUT

UTAH REGIONAL WEATHER ROUNDUP
NATIONAL WEATHER SERVICE SALT LAKE CITY UT
600 PM MDT TUE JUL 22 2014

UTZ001>011-023>025-230100-

NORTHERN UTAH

CITY           SKY/WX    TMP DP  RH WIND       PRES   REMARKS
HILL AFB       SUNNY     95  36  12 N8        30.16F HX  90
LOGAN          NOT AVBL
OGDEN          SUNNY     95  37  13 NW8       30.12F HX  90
PROVO AIRPORT  MOSUNNY   97  34  11 VRB6      30.12F HX  91
SALT LAKE CITY MOSUNNY   98  31   9 NW7       30.09F HX  92
VERNAL         SUNNY     95  22   7 SE7       30.20F
WENDOVER       SUNNY     97  34  11 E10       30.08F HX  91
HEBER CITY     SUNNY     97  32  10 W9        30.21S HX  91
WEST JORDAN    SUNNY     99  52  20 NW9G16    30.13F HX  96

$$

UTZ012>022-026-027-230100-

SOUTHERN UTAH

CITY           SKY/WX    TMP DP  RH WIND       PRES   REMARKS
BRYCE CANYON   SUNNY     86  26  11 E13G18    30.41F
CEDAR CITY     SUNNY     93  28  10 SW13G23   30.21F
MILFORD        SUNNY     97  28   8 SW18      30.14F HX  91
MOAB/CYNLANDS  SUNNY    100  20   5 W6        30.10F HX  93
PRICE          SUNNY     94  14   5 SE6       30.26F
ST GEORGE      CLEAR    104  37  10 W16       29.99F HX  98

$$

REGIONAL REPORTS     COLORADO/ARIZONA

CITY           SKY/WX    TMP DP  RH WIND       PRES   REMARKS
CRAIG, CO      SUNNY     94  17   6 E5        30.30F
GRAND JUNCTION SUNNY     97  25   7 W10       30.14F HX  90
RIFLE          SUNNY     97   9   4 NW7       30.20F HX  90
MONTROSE       SUNNY     97  25   7 NW10      30.23F HX  90
CORTEZ         SUNNY     97  28   8 SW13      30.21F HX  91
PAGE, AZ       SUNNY    102  31   8 NE6       30.09F HX  95
GRAND CANYON   PTSUNNY   86  36  16 SW7       30.35S
KINGMAN        SUNNY    100  18   5 SW16      30.07F HX  93
FLAGSTAFF      PTSUNNY   84  37  18 S5        30.37F

$$

REGIONAL REPORTS    NEVADA/IDAHO/WYOMING

CITY           SKY/WX    TMP DP  RH WIND       PRES   REMARKS
LAS VEGAS, NV  SUNNY    106  21   5 S8        29.89F HX  98
ELY            SUNNY     90  17   7 SW12G17   30.23F
ELKO           SUNNY     95  18   6 VRB3      30.08F
POCATELLO, ID  MOSUNNY   92  46  20 N9        30.15F
BURLEY         SUNNY     91  49  23 NE12      30.07F
EVANSTON, WY   SUNNY     87  27  11 W10       30.36F
ROCK SPRINGS   SUNNY     89  23   9 NW9       30.35F

$$


USA.gov is the U.S. government's official web portal to all federal, state and local government web resources and services.